Terminal Aerodrome Forecast
Issued by NWS

Home | Current Version | Previous Version | Text Only | Print | Product List | Glossary On
Versions: 1 2 3 4 5 6 7 8 9 10 11 12 13
000
FTUS42 TJSJ 020500
TAFJBQ
TAF
TJBQ 020525Z 0206/0306 00000KT P6SM SKC
     FM021350 07011KT P6SM FEW040
     FM021750 07011KT P6SM VCTS BKN040CB PROB30 0217/0220 6SM -TSRA
      BKN025CB
     FM022250 10006KT P6SM SCT040=

USA.gov is the U.S. government's official web portal to all federal, state and local government web resources and services.